Flag for U.S.A. Weather past 2 weeks in Fresno, California, U.S.A.

70 °F

Partly sunny.

Feels Like: 75 °F
Forecast: 65 / 92 °F
Wind: 5 mph from Southeast

Location: Fresno Air Terminal

Current Time: Oct 9, 2015 at 9:17:50 AM

Latest Report: Oct 9, 2015 at 8:53 AM

Visibility: 3 mi

Pressure: 30.06 "Hg

Humidity: 64%

Dew point: 57 °F

Location of FresnoLocation

Historic Weather in Fresno — Graph


Fresno temperature yesterday

Maximum temperature yesterday: 89 °F (at 3:53 PM)
Minimum temperature yesterday: 66 °F (at 6:53 AM)
Average temperature yesterday: 77 °F

Past Weeks' High & Low Weather Summary

High98 °F (Sep 25, 3:53 PM)91% (Oct 1, 12:53 PM)30.14 "Hg (Oct 1, 12:53 PM)
Low53 °F (Oct 4, 4:53 AM)13% (Sep 25, 4:53 PM)29.37 "Hg (Oct 3, 8:53 PM)
Average74 °F47%29.87 "Hg
* Reported Sep 24 6:53 AM — Oct 9 6:53 AM, Fresno, Weather by CustomWeather, © 2015

Note: Actual official high and low records may vary slightly from our data, if they occured in-between our weather recording intervals... More about our weather records


Fresno weather history for previous 24 hours

Time TempWeatherWind HumidityBarometerVisibility
6:53 AM
Fri, Oct 9
65 °FPartly cloudy.5 mph73%30.05 "Hg7 mi
5:53 AM66 °FPassing clouds.No wind70%30.03 "Hg7 mi
4:53 AM66 °FPassing clouds.3 mph73%30.02 "Hg8 mi
3:53 AM66 °FPassing clouds.5 mph70%30.02 "Hg9 mi
2:53 AM68 °FPassing clouds.3 mph68%30.03 "Hg10 mi
1:53 AM70 °FPassing clouds.No wind64%30.02 "Hg10 mi
12:53 AM73 °FPassing clouds.No wind57%30.02 "Hg10 mi
11:53 PM
Thu, Oct 8
74 °FPassing clouds.No wind53%30.03 "Hg10 mi
10:53 PM76 °FPassing clouds.3 mph50%30.02 "Hg10 mi
9:53 PM77 °FPassing clouds.5 mph50%30.01 "Hg10 mi
8:53 PM78 °FPartly cloudy.7 mph46%30.02 "Hg10 mi
7:53 PM81 °FPartly cloudy.7 mph42%30.01 "Hg9 mi
6:53 PM83 °FBroken clouds.8 mph38%30.00 "Hg9 mi
5:53 PM86 °FSunny.8 mph33%29.99 "Hg10 mi
4:53 PM88 °FPartly sunny.8 mph30%30.00 "Hg10 mi
3:53 PM89 °FPartly sunny.7 mph28%30.01 "Hg10 mi
2:53 PM87 °FPartly sunny.3 mph31%30.02 "Hg10 mi
1:53 PM87 °FScattered clouds.No wind31%30.05 "Hg10 mi
12:53 PM84 °FScattered clouds.3 mph36%30.08 "Hg10 mi
11:53 AM81 °FPartly sunny.7 mph42%30.10 "Hg8 mi
10:53 AM80 °FOvercast.9 mph44%30.10 "Hg8 mi
9:53 AM78 °FMore clouds than sun.10 mph43%30.09 "Hg8 mi
Weather by CustomWeather, © 2015

See weather overviewHow to use our weather pages